Time,TemperatureF,DewpointF,PressureIn,WindDirection,WindDirectionDegrees,WindSpeedMPH,WindSpeedGustMPH,Humidity,HourlyPrecipIn,Conditions,Clouds,dailyrainin,SoftwareType,DateUTC
2013-02-28 06:15:00,33.8,32.3,29.86,NW,321,11.0,12.0,94,0.00,,,0.00,Wunderground v.1.15,2013-02-28 12:15:00,
2013-02-28 06:20:00,33.7,31.9,29.87,NW,315,11.0,12.0,93,0.00,,,0.00,Wunderground v.1.15,2013-02-28 12:20:00,
2013-02-28 06:25:00,33.7,32.2,29.87,NW,309,11.0,11.0,94,0.00,,,0.00,Wunderground v.1.15,2013-02-28 12:25:00,
2013-02-28 06:30:00,33.7,32.2,29.87,NW,317,11.0,12.0,94,0.00,,,0.00,Wunderground v.1.15,2013-02-28 12:30:00,
2013-02-28 06:35:00,33.7,32.2,29.87,NW,315,11.0,11.0,94,0.00,,,0.00,Wunderground v.1.15,2013-02-28 12:35:00,
2013-02-28 06:40:00,33.7,32.2,29.87,NW,319,11.0,11.0,94,0.00,,,0.00,Wunderground v.1.15,2013-02-28 12:40:00,
2013-02-28 06:45:00,33.7,32.2,29.88,NW,319,10.0,10.0,94,0.00,,,0.00,Wunderground v.1.15,2013-02-28 12:45:00,
2013-02-28 06:50:00,33.7,32.2,29.87,NW,314,10.0,10.0,94,0.00,,,0.00,Wunderground v.1.15,2013-02-28 12:50:00,
2013-02-28 06:55:00,33.7,32.2,29.88,NW,318,11.0,11.0,94,0.00,,,0.00,Wunderground v.1.15,2013-02-28 12:55:00,
2013-02-28 07:00:00,33.7,32.2,29.88,NW,326,11.0,11.0,94,0.00,,,0.00,Wunderground v.1.15,2013-02-28 13:00:00,
2013-02-28 07:05:00,33.7,32.2,29.88,NW,309,10.0,11.0,94,0.00,,,0.00,Wunderground v.1.15,2013-02-28 13:05:00,
2013-02-28 07:10:00,33.7,32.4,29.88,NW,317,10.0,10.0,95,0.00,,,0.00,Wunderground v.1.15,2013-02-28 13:10:00,
2013-02-28 07:20:00,33.8,32.5,29.89,NW,311,10.0,12.0,95,0.00,,,0.00,Wunderground v.1.15,2013-02-28 13:20:00,
2013-02-28 07:25:00,33.9,32.6,29.89,NW,309,11.0,12.0,95,0.00,,,0.00,Wunderground v.1.15,2013-02-28 13:25:00,
2013-02-28 07:30:00,34.0,32.7,29.89,WNW,298,10.0,10.0,95,0.00,,,0.00,Wunderground v.1.15,2013-02-28 13:30:00,
2013-02-28 07:35:00,34.1,32.8,29.89,NW,311,10.0,11.0,95,0.00,,,0.00,Wunderground v.1.15,2013-02-28 13:35:00,
2013-02-28 07:40:00,34.2,32.7,29.89,NW,318,11.0,11.0,94,0.00,,,0.00,Wunderground v.1.15,2013-02-28 13:40:00,
2013-02-28 07:45:00,34.2,32.7,29.89,NW,325,11.0,11.0,94,0.00,,,0.00,Wunderground v.1.15,2013-02-28 13:45:00,
2013-02-28 07:55:00,34.3,33.0,29.90,NW,314,9.0,14.0,95,0.00,,,0.00,Wunderground v.1.15,2013-02-28 13:55:00,
2013-02-28 08:00:00,34.4,32.9,29.90,NW,323,10.0,10.0,94,0.00,,,0.00,Wunderground v.1.15,2013-02-28 14:00:00,
2013-02-28 08:05:00,34.4,32.9,29.90,NW,324,10.0,10.0,94,0.00,,,0.00,Wunderground v.1.15,2013-02-28 14:05:00,
2013-02-28 08:10:00,34.5,33.0,29.90,NNW,344,10.0,10.0,94,0.00,,,0.00,Wunderground v.1.15,2013-02-28 14:10:00,
2013-02-28 08:15:00,34.6,33.1,29.90,NNW,328,10.0,12.0,94,0.00,,,0.00,Wunderground v.1.15,2013-02-28 14:15:00,
2013-02-28 16:00:00,35.7,33.1,30.02,NNW,344,2.0,2.0,90,0.00,,,0.00,Wunderground v.1.15,2013-02-28 22:00:00,
2013-02-28 16:05:00,35.6,33.2,30.03,NNW,344,2.0,2.0,91,0.00,,,0.00,Wunderground v.1.15,2013-02-28 22:05:00,
2013-02-28 16:10:00,35.6,33.2,30.03,NNW,345,2.0,2.0,91,0.00,,,0.00,Wunderground v.1.15,2013-02-28 22:10:00,
2013-02-28 16:15:00,35.6,33.2,30.03,NNW,344,2.0,3.0,91,0.00,,,0.00,Wunderground v.1.15,2013-02-28 22:15:00,
2013-02-28 16:20:00,35.6,33.2,30.03,NNW,344,2.0,2.0,91,0.00,,,0.00,Wunderground v.1.15,2013-02-28 22:20:00,
2013-02-28 16:25:00,35.6,33.2,30.03,NNW,341,2.0,2.0,91,0.00,,,0.00,Wunderground v.1.15,2013-02-28 22:25:00,
2013-02-28 16:30:00,35.6,33.2,30.04,NNW,344,2.0,2.0,91,0.00,,,0.00,Wunderground v.1.15,2013-02-28 22:30:00,
2013-02-28 16:35:00,35.6,33.2,30.03,NNW,348,2.0,3.0,91,0.00,,,0.00,Wunderground v.1.15,2013-02-28 22:35:00,
2013-02-28 16:40:00,35.5,33.1,30.04,North,351,3.0,3.0,91,0.00,,,0.00,Wunderground v.1.15,2013-02-28 22:40:00,
2013-02-28 16:45:00,35.5,32.9,30.04,North,355,3.0,4.0,90,0.00,,,0.00,Wunderground v.1.15,2013-02-28 22:45:00,
2013-02-28 16:50:00,35.6,33.0,30.04,North,5,4.0,5.0,90,0.00,,,0.00,Wunderground v.1.15,2013-02-28 22:50:00,
2013-02-28 16:55:00,35.6,33.0,30.04,North,355,5.0,5.0,90,0.00,,,0.00,Wunderground v.1.15,2013-02-28 22:55:00,
2013-02-28 17:00:00,35.6,32.7,30.04,NNE,29,3.0,3.0,89,0.00,,,0.00,Wunderground v.1.15,2013-02-28 23:00:00,
2013-02-28 17:05:00,35.4,32.2,30.05,North,5,2.0,3.0,88,0.00,,,0.00,Wunderground v.1.15,2013-02-28 23:05:00,
2013-02-28 17:10:00,35.3,32.1,30.05,North,11,2.0,2.0,88,0.00,,,0.00,Wunderground v.1.15,2013-02-28 23:10:00,
2013-02-28 17:15:00,35.1,32.2,30.05,NNW,348,2.0,6.0,89,0.00,,,0.00,Wunderground v.1.15,2013-02-28 23:15:00,
2013-02-28 17:20:00,34.9,32.0,30.06,North,11,3.0,3.0,89,0.00,,,0.00,Wunderground v.1.15,2013-02-28 23:20:00,
2013-02-28 17:25:00,34.7,32.1,30.06,North,5,3.0,3.0,90,0.00,,,0.00,Wunderground v.1.15,2013-02-28 23:25:00,
2013-02-28 17:30:00,34.6,32.0,30.06,North,355,2.0,2.0,90,0.00,,,0.00,Wunderground v.1.15,2013-02-28 23:30:00,
2013-02-28 17:35:00,34.5,31.9,30.06,North,355,2.0,3.0,90,0.00,,,0.00,Wunderground v.1.15,2013-02-28 23:35:00,
2013-02-28 17:40:00,34.4,31.8,30.06,North,5,2.0,2.0,90,0.00,,,0.00,Wunderground v.1.15,2013-02-28 23:40:00,
2013-02-28 17:45:00,34.4,31.8,30.07,North,360,2.0,2.0,90,0.00,,,0.00,Wunderground v.1.15,2013-02-28 23:45:00,
2013-02-28 17:50:00,34.3,31.9,30.07,North,350,2.0,5.0,91,0.00,,,0.00,Wunderground v.1.15,2013-02-28 23:50:00,
2013-02-28 17:55:00,34.1,31.5,30.07,North,5,3.0,7.0,90,0.00,,,0.00,Wunderground v.1.15,2013-02-28 23:55:00,
2013-02-28 18:00:00,34.0,31.4,30.07,North,360,5.0,5.0,90,0.00,,,0.00,Wunderground v.1.15,2013-03-01 00:00:00,
2013-02-28 18:05:00,33.9,31.3,30.07,North,9,4.0,5.0,90,0.00,,,0.00,Wunderground v.1.15,2013-03-01 00:05:00,
2013-02-28 18:10:00,33.8,31.2,30.08,North,355,4.0,4.0,90,0.00,,,0.00,Wunderground v.1.15,2013-03-01 00:10:00,
2013-02-28 18:15:00,33.8,31.2,30.08,North,355,4.0,4.0,90,0.00,,,0.00,Wunderground v.1.15,2013-03-01 00:15:00,
2013-02-28 18:20:00,33.8,31.2,30.08,NNE,29,3.0,3.0,90,0.00,,,0.00,Wunderground v.1.15,2013-03-01 00:20:00,
2013-02-28 18:25:00,33.8,31.5,30.08,North,360,2.0,3.0,91,0.00,,,0.00,Wunderground v.1.15,2013-03-01 00:25:00,
2013-02-28 18:30:00,33.7,31.4,30.08,NNE,17,2.0,2.0,91,0.00,,,0.00,Wunderground v.1.15,2013-03-01 00:30:00,
2013-02-28 18:35:00,33.7,31.4,30.08,NNE,30,2.0,2.0,91,0.00,,,0.00,Wunderground v.1.15,2013-03-01 00:35:00,
2013-02-28 18:40:00,33.6,31.3,30.08,North,5,2.0,2.0,91,0.00,,,0.00,Wunderground v.1.15,2013-03-01 00:40:00,
2013-02-28 18:45:00,33.5,30.9,30.08,NNE,19,2.0,2.0,90,0.00,,,0.00,Wunderground v.1.15,2013-03-01 00:45:00,
2013-02-28 18:50:00,33.5,30.9,30.08,NNE,20,2.0,2.0,90,0.00,,,0.00,Wunderground v.1.15,2013-03-01 00:50:00,
2013-02-28 18:55:00,33.5,31.2,30.08,NNE,27,1.0,7.0,91,0.00,,,0.00,Wunderground v.1.15,2013-03-01 00:55:00,
2013-02-28 19:00:00,33.5,30.9,30.08,NNE,17,1.0,1.0,90,0.00,,,0.00,Wunderground v.1.15,2013-03-01 01:00:00,
2013-02-28 19:05:00,33.5,30.9,30.08,NNE,17,1.0,1.0,90,0.00,,,0.00,Wunderground v.1.15,2013-03-01 01:05:00,
2013-02-28 19:10:00,33.5,30.9,30.08,NNE,26,1.0,1.0,90,0.00,,,0.00,Wunderground v.1.15,2013-03-01 01:10:00,
2013-02-28 19:15:00,33.4,30.8,30.08,NNE,30,1.0,2.0,90,0.00,,,0.00,Wunderground v.1.15,2013-03-01 01:15:00,
2013-02-28 19:20:00,33.4,31.1,30.08,NE,35,1.0,1.0,91,0.00,,,0.00,Wunderground v.1.15,2013-03-01 01:20:00,
2013-02-28 19:25:00,33.4,31.1,30.08,NE,37,1.0,1.0,91,0.00,,,0.00,Wunderground v.1.15,2013-03-01 01:25:00,
2013-02-28 19:30:00,33.4,31.1,30.08,NE,43,1.0,1.0,91,0.00,,,0.00,Wunderground v.1.15,2013-03-01 01:30:00,
2013-02-28 19:35:00,33.3,30.7,30.08,NE,39,1.0,2.0,90,0.00,,,0.00,Wunderground v.1.15,2013-03-01 01:35:00,
2013-02-28 19:40:00,33.2,30.6,30.08,NNW,348,2.0,2.0,90,0.00,,,0.00,Wunderground v.1.15,2013-03-01 01:40:00,
2013-02-28 19:45:00,33.1,30.2,30.08,NNE,13,2.0,2.0,89,0.00,,,0.00,Wunderground v.1.15,2013-03-01 01:45:00,
2013-02-28 19:50:00,33.1,30.2,30.08,NNE,13,1.0,1.0,89,0.00,,,0.00,Wunderground v.1.15,2013-03-01 01:50:00,
2013-02-28 19:55:00,33.0,30.4,30.08,NNE,13,1.0,1.0,90,0.00,,,0.00,Wunderground v.1.15,2013-03-01 01:55:00,
2013-02-28 20:00:00,33.0,30.4,30.08,NE,42,1.0,1.0,90,0.00,,,0.00,Wunderground v.1.15,2013-03-01 02:00:00,
2013-02-28 20:05:00,32.9,30.3,30.08,NE,45,1.0,2.0,90,0.00,,,0.00,Wunderground v.1.15,2013-03-01 02:05:00,
2013-02-28 20:10:00,32.9,30.3,30.08,NE,41,1.0,1.0,90,0.00,,,0.00,Wunderground v.1.15,2013-03-01 02:10:00,
2013-02-28 20:15:00,32.8,30.2,30.08,NE,41,1.0,2.0,90,0.00,,,0.00,Wunderground v.1.15,2013-03-01 02:15:00,
2013-02-28 20:20:00,32.8,30.2,30.08,NE,39,1.0,1.0,90,0.00,,,0.00,Wunderground v.1.15,2013-03-01 02:20:00,
2013-02-28 20:25:00,32.8,30.2,30.08,NE,34,1.0,1.0,90,0.00,,,0.00,Wunderground v.1.15,2013-03-01 02:25:00,
2013-02-28 20:30:00,32.8,30.2,30.08,NNE,32,1.0,1.0,90,0.00,,,0.00,Wunderground v.1.15,2013-03-01 02:30:00,
2013-02-28 20:35:00,32.8,30.2,30.08,NNE,31,1.0,2.0,90,0.00,,,0.00,Wunderground v.1.15,2013-03-01 02:35:00,
2013-02-28 20:40:00,32.7,30.1,30.08,North,5,1.0,1.0,90,0.00,,,0.00,Wunderground v.1.15,2013-03-01 02:40:00,
2013-02-28 20:45:00,32.7,30.1,30.09,NNW,329,1.0,2.0,90,0.00,,,0.00,Wunderground v.1.15,2013-03-01 02:45:00,
2013-02-28 20:50:00,32.7,30.1,30.08,North,355,1.0,4.0,90,0.00,,,0.00,Wunderground v.1.15,2013-03-01 02:50:00,
2013-02-28 20:55:00,32.6,30.0,30.09,North,5,3.0,5.0,90,0.00,,,0.00,Wunderground v.1.15,2013-03-01 02:55:00,
2013-02-28 21:00:00,32.6,29.7,30.09,NNE,16,3.0,6.0,89,0.00,,,0.00,Wunderground v.1.15,2013-03-01 03:00:00,
2013-02-28 21:05:00,32.6,29.4,30.09,NNE,13,3.0,6.0,88,0.00,,,0.00,Wunderground v.1.15,2013-03-01 03:05:00,
2013-02-28 21:10:00,32.7,29.5,30.09,North,9,3.0,3.0,88,0.00,,,0.00,Wunderground v.1.15,2013-03-01 03:10:00,
2013-02-28 21:15:00,32.6,29.2,30.09,North,350,4.0,8.0,87,0.00,,,0.00,Wunderground v.1.15,2013-03-01 03:15:00,
2013-02-28 21:20:00,32.7,29.3,30.09,North,355,4.0,4.0,87,0.00,,,0.00,Wunderground v.1.15,2013-03-01 03:20:00,
2013-02-28 21:25:00,32.6,28.9,30.09,North,355,3.0,4.0,86,0.00,,,0.00,Wunderground v.1.15,2013-03-01 03:25:00,
2013-02-28 21:30:00,32.6,28.9,30.09,North,351,2.0,7.0,86,0.00,,,0.00,Wunderground v.1.15,2013-03-01 03:30:00,
2013-02-28 21:35:00,32.6,28.6,30.10,North,5,3.0,7.0,85,0.00,,,0.00,Wunderground v.1.15,2013-03-01 03:35:00,
2013-02-28 21:40:00,32.6,28.6,30.10,North,5,3.0,3.0,85,0.00,,,0.00,Wunderground v.1.15,2013-03-01 03:40:00,
2013-02-28 21:45:00,32.6,28.6,30.10,North,5,2.0,3.0,85,0.00,,,0.00,Wunderground v.1.15,2013-03-01 03:45:00,
2013-02-28 21:50:00,32.6,28.6,30.10,NNE,17,2.0,2.0,85,0.00,,,0.00,Wunderground v.1.15,2013-03-01 03:50:00,
2013-02-28 21:55:00,32.5,28.5,30.10,NNW,344,3.0,3.0,85,0.00,,,0.00,Wunderground v.1.15,2013-03-01 03:55:00,
2013-02-28 22:00:00,32.5,28.5,30.10,North,11,3.0,3.0,85,0.00,,,0.00,Wunderground v.1.15,2013-03-01 04:00:00,
2013-02-28 22:10:00,32.5,28.5,30.10,NNE,13,3.0,3.0,85,0.00,,,0.00,Wunderground v.1.15,2013-03-01 04:10:00,
2013-02-28 22:15:00,32.5,28.5,30.10,North,355,3.0,3.0,85,0.00,,,0.00,Wunderground v.1.15,2013-03-01 04:15:00,
2013-02-28 22:20:00,32.5,28.8,30.10,North,355,2.0,2.0,86,0.00,,,0.00,Wunderground v.1.15,2013-03-01 04:20:00,
2013-02-28 22:25:00,32.4,28.7,30.10,North,11,2.0,3.0,86,0.00,,,0.00,Wunderground v.1.15,2013-03-01 04:25:00,
2013-02-28 22:30:00,32.4,28.7,30.10,NNW,344,2.0,4.0,86,0.00,,,0.00,Wunderground v.1.15,2013-03-01 04:30:00,
2013-02-28 22:35:00,32.4,28.7,30.10,North,11,2.0,4.0,86,0.00,,,0.00,Wunderground v.1.15,2013-03-01 04:35:00,
2013-02-28 22:40:00,32.4,28.7,30.10,North,360,2.0,3.0,86,0.00,,,0.00,Wunderground v.1.15,2013-03-01 04:40:00,
2013-02-28 22:45:00,32.4,28.7,30.10,North,5,3.0,3.0,86,0.00,,,0.00,Wunderground v.1.15,2013-03-01 04:45:00,
2013-02-28 22:50:00,32.4,28.7,30.10,NNE,19,3.0,4.0,86,0.00,,,0.00,Wunderground v.1.15,2013-03-01 04:50:00,
2013-02-28 22:55:00,32.3,28.6,30.10,North,360,4.0,7.0,86,0.00,,,0.00,Wunderground v.1.15,2013-03-01 04:55:00,
2013-02-28 23:00:00,32.3,28.6,30.10,North,5,5.0,5.0,86,0.00,,,0.00,Wunderground v.1.15,2013-03-01 05:00:00,
2013-02-28 23:05:00,32.2,28.5,30.10,North,355,4.0,5.0,86,0.00,,,0.00,Wunderground v.1.15,2013-03-01 05:05:00,
2013-02-28 23:10:00,32.2,28.5,30.10,NNE,24,4.0,4.0,86,0.00,,,0.00,Wunderground v.1.15,2013-03-01 05:10:00,
2013-02-28 23:15:00,32.1,28.4,30.10,North,5,4.0,4.0,86,0.00,,,0.00,Wunderground v.1.15,2013-03-01 05:15:00,
2013-02-28 23:20:00,32.0,28.3,30.10,North,355,4.0,6.0,86,0.00,,,0.00,Wunderground v.1.15,2013-03-01 05:20:00,
2013-02-28 23:25:00,32.0,28.3,30.10,North,360,4.0,6.0,86,0.00,,,0.00,Wunderground v.1.15,2013-03-01 05:25:00,